GW7303 Weather Reports


Display with metric or nautical units.
time (UTC)temp
F
wind
direction
speed
MPH
gust
MPH
rain 1hr
in
rain 24hr
in
rain mn
in
humidity
%
barometer
mb
20260510030014 61 123 0.0 4.0 0.00 0.00 0.00 52 1012.3
20260510024513 62 207 0.0 3.0 0.00 0.00 0.00 51 1012.0
20260510023018 62 211 2.0 6.0 0.00 0.00 0.00 49 1011.8
20260510021530 63 167 3.0 7.0 0.00 0.00 0.00 49 1011.8
20260510020026 63 204 2.0 8.0 0.00 0.00 0.00 49 1011.5
20260510014510 62 188 1.0 4.0 0.00 0.00 0.00 50 1011.2
20260510013015 63 107 0.0 2.0 0.00 0.00 0.00 54 1011.0
20260510011520 63 215 0.0 4.0 0.00 0.00 0.00 52 1010.6
20260510010005 63 200 0.0 3.0 0.00 0.00 0.00 55 1010.4
20260510004508 64 91 0.0 0.0 0.00 0.00 0.00 62 1010.2
20260510003012 66 127 0.0 2.0 0.00 0.00 0.00 59 1009.9
20260510001517 67 176 1.0 3.0 0.00 0.00 0.00 56 1009.5
20260510000011 69 107 0.0 0.0 0.00 0.00 0.00 54 1009.4
20260509234510 70 115 1.0 4.0 0.00 0.00 0.00 52 1009.2
20260509233009 70 77 1.0 4.0 0.00 0.00 0.00 52 1009.2
20260509231517 69 271 0.0 3.0 0.00 0.00 0.00 53 1009.2
20260509230022 71 132 0.0 0.0 0.00 0.00 0.00 51 1009.1
20260509224504 71 91 0.0 0.0 0.00 0.00 0.00 51 1009.0
20260509223012 70 33 0.0 0.0 0.00 0.00 0.00 51 1009.1
20260509221511 71 100 0.0 6.0 0.00 0.00 0.00 50 1009.1
20260509220019 71 103 2.0 6.0 0.00 0.00 0.00 48 1008.9
20260509214523 71 122 1.0 9.0 0.00 0.00 0.00 48 1008.8
20260509213005 71 72 1.0 7.0 0.00 0.00 0.00 50 1008.8
20260509211517 71 89 3.0 10.0 0.00 0.00 0.00 48 1008.6
20260509210016 71 66 0.0 5.0 0.00 0.00 0.00 49 1008.6
20260509204519 71 101 1.0 5.0 0.00 0.00 0.00 47 1008.6
20260509203026 72 66 1.0 10.0 0.00 0.00 0.00 46 1008.5
20260509201528 72 118 1.0 7.0 0.00 0.00 0.00 44 1008.4
20260509200010 73 8 2.0 6.0 0.00 0.00 0.00 44 1008.4
20260509194513 73 118 3.0 8.0 0.00 0.00 0.00 45 1008.7
20260509193022 71 89 3.0 8.0 0.00 0.00 0.00 48 1008.8
20260509191526 71 54 1.0 5.0 0.00 0.00 0.00 48 1009.2
20260509190035 71 252 1.0 7.0 0.00 0.00 0.00 47 1009.2
20260509184517 70 138 0.0 2.0 0.00 0.00 0.00 46 1009.3
20260509183019 71 88 0.0 4.0 0.00 0.00 0.00 46 1009.6
20260509181521 72 98 0.0 7.0 0.00 0.00 0.00 46 1009.5
20260509180005 71 270 3.0 6.0 0.00 0.00 0.00 48 1009.8
20260509174509 70 242 2.0 5.0 0.00 0.00 0.00 47 1010.1
20260509173024 70 70 1.0 5.0 0.00 0.00 0.00 50 1010.2
20260509171521 70 134 1.0 7.0 0.00 0.00 0.00 52 1010.6
20260509170011 69 136 1.0 6.0 0.00 0.00 0.00 52 1010.7
20260509164508 68 131 1.0 6.0 0.00 0.00 0.00 52 1010.6
20260509163016 69 135 2.0 9.0 0.00 0.00 0.00 50 1010.7
20260509161512 69 224 2.0 7.0 0.00 0.00 0.00 50 1010.5
20260509160019 69 276 0.0 6.0 0.00 0.00 0.00 49 1010.5
20260509154504 68 198 1.0 6.0 0.00 0.00 0.00 55 1010.6
20260509153016 67 205 2.0 5.0 0.00 0.00 0.00 54 1010.8
20260509151515 67 155 1.0 5.0 0.00 0.00 0.00 55 1010.9
20260509150016 65 40 0.0 3.0 0.00 0.00 0.00 57 1010.7
20260509144518 65 120 0.0 2.0 0.00 0.00 0.00 56 1010.9
20260509143012 65 91 0.0 4.0 0.00 0.00 0.00 57 1010.7
20260509141512 65 118 1.0 5.0 0.00 0.00 0.00 58 1010.7
20260509140015 63 147 0.0 3.0 0.00 0.00 0.00 61 1011.0
20260509134519 61 206 2.0 5.0 0.00 0.00 0.00 62 1011.3
20260509133020 60 229 0.0 6.0 0.00 0.00 0.00 65 1011.6
20260509131508 59 132 1.0 5.0 0.00 0.00 0.00 66 1011.8
20260509130037 58 240 0.0 1.0 0.00 0.00 0.00 66 1011.7
20260509124528 57 229 0.0 0.0 0.00 0.00 0.00 65 1011.7
20260509123035 57 109 0.0 2.0 0.00 0.00 0.00 64 1011.7
20260509121524 57 246 0.0 0.0 0.00 0.00 0.00 64 1011.6
20260509120030 56 122 0.0 1.0 0.00 0.00 0.00 64 1011.9
20260509114518 55 122 0.0 2.0 0.00 0.00 0.00 63 1011.7
20260509113020 54 122 0.0 2.0 0.00 0.00 0.00 64 1011.7
20260509111525 54 105 0.0 0.0 0.00 0.00 0.00 64 1011.7
20260509110029 54 100 1.0 2.0 0.00 0.00 0.00 63 1011.6
20260509104525 53 107 0.0 0.0 0.00 0.00 0.00 64 1011.5
20260509103018 52 119 0.0 0.0 0.00 0.00 0.00 66 1011.7
20260509101533 51 96 0.0 0.0 0.00 0.00 0.00 66 1011.7
20260509100026 52 96 0.0 0.0 0.00 0.00 0.00 65 1011.7
20260509094531 52 96 0.0 0.0 0.00 0.00 0.00 64 1011.7
20260509093027 51 91 0.0 1.0 0.00 0.00 0.00 65 1011.8
20260509091518 51 98 0.0 0.0 0.00 0.00 0.00 63 1011.9
20260509090023 52 98 0.0 0.0 0.00 0.00 0.00 61 1011.9
20260509084504 53 98 0.0 0.0 0.00 0.00 0.00 59 1012.0
20260509083010 53 98 0.0 0.0 0.00 0.00 0.00 59 1012.0
20260509081514 53 98 0.0 0.0 0.00 0.00 0.00 60 1011.9
20260509080019 54 84 0.0 0.0 0.00 0.00 0.00 57 1012.0
20260509074522 54 84 0.0 0.0 0.00 0.00 0.00 57 1012.1
20260509073009 54 113 0.0 3.0 0.00 0.00 0.00 56 1012.3
20260509071511 54 98 2.0 6.0 0.00 0.00 0.00 56 1012.4
20260509070018 54 121 0.0 3.0 0.00 0.00 0.00 57 1012.6
20260509064520 54 80 1.0 4.0 0.00 0.00 0.00 58 1012.6
20260509063034 54 77 0.0 0.0 0.00 0.00 0.00 58 1012.8
20260509061513 54 86 0.0 0.0 0.00 0.00 0.00 57 1013.0
20260509060012 53 86 0.0 1.0 0.00 0.00 0.00 58 1013.0
20260509054521 53 69 0.0 0.0 0.00 0.00 0.00 58 1013.1
20260509053024 52 170 0.0 1.0 0.00 0.00 0.00 58 1013.2
20260509051526 53 243 0.0 3.0 0.00 0.00 0.00 58 1013.4
20260509050030 52 246 0.0 0.0 0.00 0.00 0.00 57 1013.3
20260509044513 53 246 0.0 0.0 0.00 0.00 0.00 56 1013.2
20260509043020 53 246 0.0 0.0 0.00 0.00 0.00 55 1013.1
20260509041525 54 245 0.0 0.0 0.00 0.00 0.00 54 1013.1
20260509040037 56 245 0.0 4.0 0.00 0.00 0.00 53 1013.0
20260509034530 56 100 0.0 4.0 0.00 0.00 0.00 51 1013.0
20260509033018 56 71 0.0 5.0 0.00 0.00 0.00 52 1012.9
20260509031528 56 240 1.0 2.0 0.00 0.00 0.00 53 1013.2